Altus, OK

1:41 PM CST on February 06, 2016 (GMT -0600)
Altus Municipal

Weather History for KAXS - January, 2014

Change the Weather History Date:

Sunday, January 19, 2014

  Actual Average Record
Temperature  
Mean Temperature 49 °F -  
Max Temperature 73 °F - - ()
Min Temperature 25 °F - - ()
Degree Days  
Heating Degree Days 16    
Moisture  
Dew Point 18 °F    
Average Humidity 37    
Maximum Humidity 68    
Minimum Humidity 12    
Precipitation  
Precipitation 0.00 in - - ()
Sea Level Pressure  
Sea Level Pressure 30.13 in    
Wind  
Wind Speed 7 mph (SW)    
Max Wind Speed 24 mph    
Max Gust Speed 28 mph    
Visibility 10 miles    
Events      
T = Trace of Precipitation, MM = Missing Value Source: NWS Daily Summary

Daily Weather History Graph

Daily Weather History Graph

Search for Another Location

Airport or City:

Trip Planner

Search our weather history database for the weather conditions in past years. The results will help you decide how hot, cold, wet, or windy it might be!

Date:

Astronomy

Jan. 19, 2014 Rise Set
Actual Time 7:42 AM CST 5:53 PM CST
Civil Twilight 7:15 AM CST 6:20 PM CST
Nautical Twilight 6:44 AM CST 6:51 PM CST
Astronomical Twilight 6:14 AM CST 7:21 PM CST
Moon 9:22 PM CST (1/19) 9:23 AM CST (1/19)
Length of Visible Light 11h 05m
Length of Day
10h 10m
Waning Gibbous, 89% of the Moon is Illuminated
Jan 19
Waning Gibbous
Jan 23
Last Quarter
Jan 30
New
Feb 6
First Quarter
Feb 14
Full

Hourly Weather History & Observations

Time (CST) Temp. Windchill Dew Point Humidity Pressure Visibility Wind Dir Wind Speed Gust Speed Precip Events Conditions
12:15 AM 41.0 °F - 18.9 °F 41% 30.26 in 10.0 mi Calm Calm - N/A   Clear
12:35 AM 34.2 °F 30.0 °F 19.2 °F 54% 30.26 in 10.0 mi West 4.6 mph - N/A   Clear
12:55 AM 32.0 °F 25.6 °F 18.5 °F 58% 30.25 in 10.0 mi WNW 6.9 mph - N/A   Clear
1:15 AM 32.2 °F 27.7 °F 18.5 °F 57% 30.25 in 10.0 mi WNW 4.6 mph - N/A   Clear
1:35 AM 31.8 °F 27.3 °F 18.3 °F 57% 30.24 in 10.0 mi NW 4.6 mph - N/A   Clear
1:55 AM 32.7 °F 28.3 °F 19.2 °F 58% 30.25 in 10.0 mi NW 4.6 mph - N/A   Clear
2:15 AM 31.8 °F 28.5 °F 19.6 °F 61% 30.25 in 10.0 mi North 3.5 mph - N/A   Clear
2:35 AM 32.2 °F 25.8 °F 19.2 °F 59% 30.25 in 10.0 mi North 6.9 mph - N/A   Clear
2:55 AM 30.0 °F 25.2 °F 19.2 °F 64% 30.25 in 10.0 mi NNW 4.6 mph - N/A   Clear
3:15 AM 30.0 °F - 18.0 °F 61% 30.27 in 10.0 mi Calm Calm - N/A   Clear
3:35 AM 28.2 °F 24.4 °F 17.4 °F 64% 30.28 in 10.0 mi North 3.5 mph - N/A   Clear
3:55 AM 29.3 °F 25.6 °F 18.0 °F 63% 30.28 in 10.0 mi WNW 3.5 mph - N/A   Clear
4:15 AM 27.3 °F 23.4 °F 17.1 °F 65% 30.28 in 10.0 mi West 3.5 mph - N/A   Clear
4:35 AM 27.7 °F - 17.1 °F 64% 30.27 in 10.0 mi Calm Calm - N/A   Clear
4:55 AM 29.7 °F - 17.2 °F 60% 30.27 in 10.0 mi Calm Calm - N/A   Clear
5:15 AM 29.3 °F - 18.1 °F 63% 30.27 in 10.0 mi Calm Calm - N/A   Clear
5:35 AM 27.1 °F - 16.7 °F 65% 30.26 in 10.0 mi Calm Calm - N/A   Clear
5:55 AM 27.5 °F - 17.1 °F 65% 30.25 in 10.0 mi Calm Calm - N/A   Clear
6:15 AM 27.0 °F - 16.7 °F 65% 30.26 in 10.0 mi Calm Calm - N/A   Clear
6:35 AM 26.1 °F 21.9 °F 16.0 °F 66% 30.26 in 10.0 mi WSW 3.5 mph - N/A   Clear
6:55 AM 25.7 °F - 16.2 °F 67% 30.25 in 10.0 mi Calm Calm - N/A   Scattered Clouds
7:15 AM 25.9 °F - 16.5 °F 68% 30.25 in 10.0 mi Calm Calm - N/A   Scattered Clouds
7:35 AM 27.5 °F 23.6 °F 16.7 °F 64% 30.26 in 10.0 mi SSW 3.5 mph - N/A   Scattered Clouds
7:55 AM 26.6 °F 21.2 °F 16.0 °F 64% 30.26 in 10.0 mi SW 4.6 mph - N/A   Scattered Clouds
8:15 AM 26.8 °F 22.8 °F 16.7 °F 66% 30.26 in 10.0 mi SW 3.5 mph - N/A   Clear
8:35 AM 28.6 °F 24.8 °F 18.1 °F 65% 30.26 in 10.0 mi WSW 3.5 mph - N/A   Mostly Cloudy
8:55 AM 31.1 °F - 19.0 °F 61% 30.26 in 10.0 mi Calm Calm - N/A   Overcast
9:15 AM 33.4 °F - 19.9 °F 58% 30.25 in 10.0 mi Calm Calm - N/A   Mostly Cloudy
9:35 AM 36.7 °F 34.1 °F 20.5 °F 52% 30.26 in 10.0 mi SW 3.5 mph - N/A   Scattered Clouds
9:55 AM 40.1 °F 36.1 °F 21.2 °F 47% 30.26 in 10.0 mi SW 5.8 mph - N/A   Clear
10:15 AM 44.1 °F 40.8 °F 21.7 °F 41% 30.25 in 10.0 mi SSW 5.8 mph - N/A   Clear
10:35 AM 47.8 °F - 22.1 °F 36% 30.25 in 10.0 mi SSW 11.5 mph - N/A   Clear
10:55 AM 51.1 °F - 22.1 °F 32% 30.24 in 10.0 mi SSW 12.7 mph - N/A   Clear
11:15 AM 54.7 °F - 22.1 °F 28% 30.24 in 10.0 mi SSW 15.0 mph - N/A   Clear
11:35 AM 56.8 °F - 22.5 °F 26% 30.23 in 10.0 mi SSW 13.8 mph - N/A   Clear
11:55 AM 60.6 °F - 21.6 °F 22% 30.20 in 10.0 mi SSW 19.6 mph 23.0 mph N/A   Clear
12:15 PM 61.9 °F - 20.5 °F 20% 30.18 in 10.0 mi SW 18.4 mph 24.2 mph N/A   Clear
12:35 PM 63.9 °F - 20.7 °F 19% 30.16 in 10.0 mi SW 18.4 mph 23.0 mph N/A   Clear
12:55 PM 65.7 °F - 20.1 °F 18% 30.15 in 10.0 mi SW 19.6 mph 25.3 mph N/A   Clear
1:15 PM 67.1 °F - 20.3 °F 17% 30.12 in 10.0 mi SW 20.7 mph 24.2 mph N/A   Clear
1:35 PM 68.0 °F - 18.7 °F 15% 30.10 in 10.0 mi SW 21.9 mph 27.6 mph N/A   Clear
2:00 PM 70.5 °F - 18.7 °F 14% 30.08 in 10.0 mi SW 21.9 mph - N/A   Clear
2:15 PM 70.7 °F - 18.5 °F 14% 30.07 in 10.0 mi SW 20.7 mph 25.3 mph N/A   Clear
2:35 PM 71.8 °F - 18.7 °F 13% 30.05 in 10.0 mi SW 19.6 mph 26.5 mph N/A   Clear
2:55 PM 72.7 °F - 18.7 °F 13% 30.04 in 10.0 mi SW 21.9 mph 25.3 mph N/A   Clear
3:15 PM 73.0 °F - 18.0 °F 12% 30.03 in 10.0 mi SW 21.9 mph 26.5 mph N/A   Clear
3:35 PM 73.4 °F - 17.2 °F 12% 30.02 in 10.0 mi SW 19.6 mph - N/A   Clear
3:55 PM 73.4 °F - 17.1 °F 12% 30.02 in 10.0 mi SW 20.7 mph 26.5 mph N/A   Clear
4:15 PM 73.4 °F - 17.4 °F 12% 30.00 in 10.0 mi SW 24.2 mph - N/A   Clear
4:35 PM 72.9 °F - 18.0 °F 13% 30.00 in 10.0 mi SSW 18.4 mph 21.9 mph N/A   Clear
4:55 PM 71.6 °F - 17.8 °F 13% 29.99 in 10.0 mi SW 17.3 mph - N/A   Clear
5:15 PM 70.0 °F - 17.6 °F 14% 29.99 in 10.0 mi SSW 16.1 mph - N/A   Clear
5:35 PM 67.1 °F - 17.6 °F 15% 29.99 in 10.0 mi SSW 11.5 mph - N/A   Clear
5:55 PM 63.5 °F - 18.0 °F 17% 29.99 in 10.0 mi SSW 11.5 mph - N/A   Clear
6:15 PM 60.4 °F - 18.5 °F 20% 29.99 in 10.0 mi South 11.5 mph - N/A   Clear
6:35 PM 58.5 °F - 18.9 °F 21% 29.99 in 10.0 mi South 15.0 mph - N/A   Clear
6:55 PM 58.1 °F - 18.3 °F 21% 29.99 in 10.0 mi South 13.8 mph - N/A   Clear
7:15 PM 56.7 °F - 18.1 °F 22% 29.99 in 10.0 mi South 12.7 mph - N/A   Clear
7:35 PM 55.0 °F - 18.0 °F 23% 29.99 in 10.0 mi South 12.7 mph - N/A   Clear
7:55 PM 55.4 °F - 17.6 °F 23% 29.99 in 10.0 mi South 15.0 mph - N/A   Clear
8:15 PM 54.9 °F - 17.2 °F 23% 29.99 in 10.0 mi South 13.8 mph - N/A   Clear
8:35 PM 56.1 °F - 16.5 °F 21% 29.98 in 10.0 mi South 16.1 mph - N/A   Clear
8:55 PM 54.3 °F - 16.7 °F 23% 29.98 in 10.0 mi South 15.0 mph - N/A   Clear
9:15 PM 52.9 °F - 16.7 °F 24% 29.97 in 10.0 mi South 12.7 mph - N/A   Clear
9:35 PM 51.3 °F - 17.1 °F 26% 29.97 in 10.0 mi South 11.5 mph - N/A   Clear
9:39 PM 51.8 °F - 17.6 °F 26% 29.97 in 10.0 mi South 11.5 mph - N/A   Clear
9:55 PM 50.0 °F - 17.4 °F 28% 29.97 in 10.0 mi SSW 11.5 mph - N/A   Clear
10:15 PM 49.3 °F - 17.6 °F 28% 29.97 in 10.0 mi SSW 12.7 mph - N/A   Clear
10:35 PM 49.5 °F - 17.6 °F 28% 29.96 in 10.0 mi South 12.7 mph - N/A   Clear
10:38 PM 48.2 °F - 17.6 °F 30% 29.96 in 10.0 mi South 13.8 mph - N/A   Clear
10:55 PM 49.8 °F - 17.6 °F 28% 29.96 in 10.0 mi South 12.7 mph - N/A   Clear
11:15 PM 49.1 °F - 17.8 °F 29% 29.96 in 10.0 mi South 11.5 mph - N/A   Clear
11:40 PM 48.9 °F - 18.3 °F 30% 29.95 in 10.0 mi South 10.4 mph - N/A   Clear
11:55 PM 48.2 °F - 18.3 °F 31% 29.94 in 10.0 mi South 8.1 mph - N/A   Clear